Volver al catálogo

STARLINK-35239

ActivoComunicacionesVLEO
NORAD 65623·PAYLOAD·🇺🇸 United States

Lanzado Sep 18, 2025 desde Cape Canaveral Space Force Station

Loading…

Próximos Pases (próximas 24 horas)

TLE

ActualizadoSource: CelesTrak SupGP

Época: Sep 14, 2026, 20:43 UTC

1 65623C 25210B   26257.86368056 -.00068459  00000+0 -20219-2 0  2572
2 65623  53.1570 143.8705 0001231  96.9857  67.9499 15.34435608    18

Sigue STARLINK-35239 en tiempo real con AllMySat

Download on the App Store